Year,Month,Day,Hour,Minute,Value (Times are PST for windspeed in km/hr)
2011,07,07,00,00,0.00
2011,07,07,00,01,0.00
2011,07,07,00,02,0.00
2011,07,07,00,03,0.00
2011,07,07,00,04,0.00
2011,07,07,00,05,0.20
2011,07,07,00,06,0.00
2011,07,07,00,07,0.20
2011,07,07,00,08,0.20
2011,07,07,00,09,0.30
2011,07,07,00,10,0.00
2011,07,07,00,11,0.00
2011,07,07,00,12,0.00
2011,07,07,00,13,0.00
2011,07,07,00,14,0.00
2011,07,07,00,15,0.10
2011,07,07,00,16,0.00
2011,07,07,00,17,0.00
2011,07,07,00,18,0.00
2011,07,07,00,19,0.00
2011,07,07,00,20,0.00
2011,07,07,00,21,0.00
2011,07,07,00,22,0.00
2011,07,07,00,23,0.00
2011,07,07,00,24,0.00
2011,07,07,00,25,0.00
2011,07,07,00,26,0.00
2011,07,07,00,27,0.00
2011,07,07,00,28,0.00
2011,07,07,00,29,0.00
2011,07,07,00,30,0.00
2011,07,07,00,31,0.00
2011,07,07,00,32,0.00
2011,07,07,00,33,0.00
2011,07,07,00,34,0.00
2011,07,07,00,35,0.00
2011,07,07,00,36,0.00
2011,07,07,00,37,0.00
2011,07,07,00,38,0.00
2011,07,07,00,39,0.00
2011,07,07,00,40,0.00
2011,07,07,00,41,0.00
2011,07,07,00,42,0.10
2011,07,07,00,43,0.00
2011,07,07,00,44,0.00
2011,07,07,00,45,0.00
2011,07,07,00,46,0.00
2011,07,07,00,47,0.00
2011,07,07,00,48,0.00
2011,07,07,00,49,0.00
2011,07,07,00,50,0.00
2011,07,07,00,51,0.00
2011,07,07,00,52,0.10
2011,07,07,00,53,0.60
2011,07,07,00,54,0.40
2011,07,07,00,55,0.20
2011,07,07,00,56,0.20
2011,07,07,00,57,0.10
2011,07,07,00,58,0.00
2011,07,07,00,59,0.00
2011,07,07,01,00,0.00
2011,07,07,01,01,0.00
2011,07,07,01,02,0.00
2011,07,07,01,03,0.10
2011,07,07,01,04,0.00
2011,07,07,01,05,0.00
2011,07,07,01,06,0.00
2011,07,07,01,07,0.80
2011,07,07,01,08,2.20
2011,07,07,01,09,0.90
2011,07,07,01,10,0.50
2011,07,07,01,11,3.10
2011,07,07,01,12,2.90
2011,07,07,01,13,1.40
2011,07,07,01,14,2.10
2011,07,07,01,15,0.10
2011,07,07,01,16,0.80
2011,07,07,01,17,0.60
2011,07,07,01,18,1.00
2011,07,07,01,19,4.40
2011,07,07,01,20,1.30
2011,07,07,01,21,1.50
2011,07,07,01,22,2.60
2011,07,07,01,23,3.30
2011,07,07,01,24,3.00
2011,07,07,01,25,0.30
2011,07,07,01,26,1.00
2011,07,07,01,27,5.60
2011,07,07,01,28,1.70
2011,07,07,01,29,0.10
2011,07,07,01,30,0.70
2011,07,07,01,31,0.10
2011,07,07,01,32,1.80
2011,07,07,01,33,3.10
2011,07,07,01,34,2.30
2011,07,07,01,35,3.70
2011,07,07,01,36,4.40
2011,07,07,01,37,3.10
2011,07,07,01,38,3.50
2011,07,07,01,39,1.40
2011,07,07,01,40,0.00
2011,07,07,01,41,0.10
2011,07,07,01,42,0.00
2011,07,07,01,43,0.20
2011,07,07,01,44,0.00
2011,07,07,01,45,0.00
2011,07,07,01,46,0.00
2011,07,07,01,47,0.00
2011,07,07,01,48,0.10
2011,07,07,01,49,0.10
2011,07,07,01,50,0.20
2011,07,07,01,51,0.30
2011,07,07,01,52,0.60
2011,07,07,01,53,0.10
2011,07,07,01,54,0.00
2011,07,07,01,55,0.00
2011,07,07,01,56,0.00
2011,07,07,01,57,0.00
2011,07,07,01,58,0.00
2011,07,07,01,59,0.00
2011,07,07,02,00,0.00
2011,07,07,02,01,0.00
2011,07,07,02,02,0.00
2011,07,07,02,03,1.00
2011,07,07,02,04,0.20
2011,07,07,02,05,0.00
2011,07,07,02,06,0.00
2011,07,07,02,07,0.00
2011,07,07,02,08,0.00
2011,07,07,02,09,0.00
2011,07,07,02,10,0.00
2011,07,07,02,11,0.20
2011,07,07,02,12,0.10
2011,07,07,02,13,0.30
2011,07,07,02,14,0.10
2011,07,07,02,15,0.00
2011,07,07,02,16,0.00
2011,07,07,02,17,0.00
2011,07,07,02,18,0.00
2011,07,07,02,19,0.00
2011,07,07,02,20,0.00
2011,07,07,02,21,0.00
2011,07,07,02,22,0.00
2011,07,07,02,23,0.00
2011,07,07,02,24,0.00
2011,07,07,02,25,0.00
2011,07,07,02,26,0.00
2011,07,07,02,27,0.00
2011,07,07,02,28,2.60
2011,07,07,02,29,1.00
2011,07,07,02,30,0.10
2011,07,07,02,31,0.00
2011,07,07,02,32,0.00
2011,07,07,02,33,0.80
2011,07,07,02,34,0.10
2011,07,07,02,35,0.00
2011,07,07,02,36,1.00
2011,07,07,02,37,0.10
2011,07,07,02,38,0.70
2011,07,07,02,39,0.60
2011,07,07,02,40,1.30
2011,07,07,02,41,0.00
2011,07,07,02,42,0.20
2011,07,07,02,43,5.80
2011,07,07,02,44,0.70
2011,07,07,02,45,0.20
2011,07,07,02,46,0.60
2011,07,07,02,47,0.60
2011,07,07,02,48,0.10
2011,07,07,02,49,0.00
2011,07,07,02,50,0.00
2011,07,07,02,51,0.00
2011,07,07,02,52,0.10
2011,07,07,02,53,0.00
2011,07,07,02,54,0.00
2011,07,07,02,55,0.00
2011,07,07,02,56,0.10
2011,07,07,02,57,0.10
2011,07,07,02,58,0.30
2011,07,07,02,59,0.20
2011,07,07,03,00,0.10
2011,07,07,03,01,3.10
2011,07,07,03,02,5.00
2011,07,07,03,03,3.50
2011,07,07,03,04,1.90
2011,07,07,03,05,0.70
2011,07,07,03,06,0.70
2011,07,07,03,07,3.10
2011,07,07,03,08,1.90
2011,07,07,03,09,5.70
2011,07,07,03,10,6.20
2011,07,07,03,11,4.60
2011,07,07,03,12,4.70
2011,07,07,03,13,5.60
2011,07,07,03,14,2.30
2011,07,07,03,15,2.00
2011,07,07,03,16,4.60
2011,07,07,03,17,5.50
2011,07,07,03,18,3.90
2011,07,07,03,19,1.30
2011,07,07,03,20,4.70
2011,07,07,03,21,4.30
2011,07,07,03,22,1.10
2011,07,07,03,23,1.40
2011,07,07,03,24,3.80
2011,07,07,03,25,1.20
2011,07,07,03,26,1.10
2011,07,07,03,27,2.90
2011,07,07,03,28,2.60
2011,07,07,03,29,2.50
2011,07,07,03,30,2.00
2011,07,07,03,31,0.50
2011,07,07,03,32,0.10
2011,07,07,03,33,1.50
2011,07,07,03,34,2.20
2011,07,07,03,35,4.30
2011,07,07,03,36,3.00
2011,07,07,03,37,3.90
2011,07,07,03,38,2.30
2011,07,07,03,39,0.60
2011,07,07,03,40,0.40
2011,07,07,03,41,3.50
2011,07,07,03,42,0.50
2011,07,07,03,43,0.00
2011,07,07,03,44,0.20
2011,07,07,03,45,1.70
2011,07,07,03,46,2.80
2011,07,07,03,47,1.40
2011,07,07,03,48,2.90
2011,07,07,03,49,0.50
2011,07,07,03,50,0.20
2011,07,07,03,51,1.40
2011,07,07,03,52,3.10
2011,07,07,03,53,3.40
2011,07,07,03,54,6.70
2011,07,07,03,55,3.60
2011,07,07,03,56,2.30
2011,07,07,03,57,1.80
2011,07,07,03,58,0.20
2011,07,07,03,59,3.50
2011,07,07,04,00,0.70
2011,07,07,04,01,1.30
2011,07,07,04,02,0.20
2011,07,07,04,03,1.90
2011,07,07,04,04,2.00
2011,07,07,04,05,5.80
2011,07,07,04,06,4.10
2011,07,07,04,07,2.80
2011,07,07,04,08,3.00
2011,07,07,04,09,2.60
2011,07,07,04,10,1.30
2011,07,07,04,11,2.80
2011,07,07,04,12,6.00
2011,07,07,04,13,5.90
2011,07,07,04,14,5.00
2011,07,07,04,15,4.40
2011,07,07,04,16,5.80
2011,07,07,04,17,2.30
2011,07,07,04,18,3.40
2011,07,07,04,19,4.60
2011,07,07,04,20,5.50
2011,07,07,04,21,4.70
2011,07,07,04,22,6.30
2011,07,07,04,23,5.30
2011,07,07,04,24,4.70
2011,07,07,04,25,5.90
2011,07,07,04,26,4.30
2011,07,07,04,27,3.90
2011,07,07,04,28,4.00
2011,07,07,04,29,3.80
2011,07,07,04,30,3.20
2011,07,07,04,31,1.00
2011,07,07,04,32,3.90
2011,07,07,04,33,3.80
2011,07,07,04,34,3.70
2011,07,07,04,35,5.30
2011,07,07,04,36,2.70
2011,07,07,04,37,0.90
2011,07,07,04,38,0.10
2011,07,07,04,39,0.00
2011,07,07,04,40,0.10
2011,07,07,04,41,0.00
2011,07,07,04,42,0.00
2011,07,07,04,43,0.00
2011,07,07,04,44,0.00
2011,07,07,04,45,2.50
2011,07,07,04,46,3.10
2011,07,07,04,47,3.50
2011,07,07,04,48,5.60
2011,07,07,04,49,3.70
2011,07,07,04,50,5.20
2011,07,07,04,51,4.40
2011,07,07,04,52,1.30
2011,07,07,04,53,0.00
2011,07,07,04,54,3.10
2011,07,07,04,55,1.80
2011,07,07,04,56,1.90
2011,07,07,04,57,3.00
2011,07,07,04,58,2.40
2011,07,07,04,59,3.90
2011,07,07,05,00,4.30
2011,07,07,05,01,1.90
2011,07,07,05,02,0.10
2011,07,07,05,03,0.10
2011,07,07,05,04,0.70
2011,07,07,05,05,0.00
2011,07,07,05,06,0.00
2011,07,07,05,07,0.20
2011,07,07,05,08,1.20
2011,07,07,05,09,1.30
2011,07,07,05,10,1.50
2011,07,07,05,11,3.30
2011,07,07,05,12,2.00
2011,07,07,05,13,1.60
2011,07,07,05,14,0.00
2011,07,07,05,15,0.20
2011,07,07,05,16,0.30
2011,07,07,05,17,0.10
2011,07,07,05,18,0.30
2011,07,07,05,19,0.30
2011,07,07,05,20,0.00
2011,07,07,05,21,0.00
2011,07,07,05,22,0.00
2011,07,07,05,23,0.00
2011,07,07,05,24,0.00
2011,07,07,05,25,0.00
2011,07,07,05,26,0.00
2011,07,07,05,27,0.40
2011,07,07,05,28,0.80
2011,07,07,05,29,0.60
2011,07,07,05,30,0.90
2011,07,07,05,31,0.70
2011,07,07,05,32,0.70
2011,07,07,05,33,0.00
2011,07,07,05,34,0.00
2011,07,07,05,35,0.00
2011,07,07,05,36,0.00
2011,07,07,05,37,0.00
2011,07,07,05,38,0.00
2011,07,07,05,39,0.00
2011,07,07,05,40,0.00
2011,07,07,05,41,0.00
2011,07,07,05,42,0.00
2011,07,07,05,43,0.00
2011,07,07,05,44,0.10
2011,07,07,05,45,0.20
2011,07,07,05,46,0.00
2011,07,07,05,47,0.10
2011,07,07,05,48,0.00
2011,07,07,05,49,0.00
2011,07,07,05,50,0.00
2011,07,07,05,51,0.00
2011,07,07,05,52,0.00
2011,07,07,05,53,0.00
2011,07,07,05,54,0.00
2011,07,07,05,55,0.00
2011,07,07,05,56,0.00
2011,07,07,05,57,0.00
2011,07,07,05,58,0.00
2011,07,07,05,59,0.00
2011,07,07,06,00,0.00
2011,07,07,06,01,0.00
2011,07,07,06,02,0.00
2011,07,07,06,03,0.00
2011,07,07,06,04,0.00
2011,07,07,06,05,0.00
2011,07,07,06,06,0.00
2011,07,07,06,07,0.00
2011,07,07,06,08,0.00
2011,07,07,06,09,0.00
2011,07,07,06,10,0.00
2011,07,07,06,11,0.00
2011,07,07,06,12,0.00
2011,07,07,06,13,0.00
2011,07,07,06,14,0.00
2011,07,07,06,15,0.00
2011,07,07,06,16,0.00
2011,07,07,06,17,0.00
2011,07,07,06,18,0.00
2011,07,07,06,19,0.00
2011,07,07,06,20,0.00
2011,07,07,06,21,0.00
2011,07,07,06,22,0.10
2011,07,07,06,23,0.20
2011,07,07,06,24,0.30
2011,07,07,06,25,0.10
2011,07,07,06,26,0.00
2011,07,07,06,27,0.00
2011,07,07,06,28,0.00
2011,07,07,06,29,0.00
2011,07,07,06,30,0.00
2011,07,07,06,31,0.00
2011,07,07,06,32,0.00
2011,07,07,06,33,0.00
2011,07,07,06,34,0.00
2011,07,07,06,35,0.20
2011,07,07,06,36,0.00
2011,07,07,06,37,0.00
2011,07,07,06,38,0.00
2011,07,07,06,39,0.00
2011,07,07,06,40,0.00
2011,07,07,06,41,0.00
2011,07,07,06,42,0.00
2011,07,07,06,43,0.00
2011,07,07,06,44,0.00
2011,07,07,06,45,0.00
2011,07,07,06,46,0.00
2011,07,07,06,47,0.00
2011,07,07,06,48,0.00
2011,07,07,06,49,0.00
2011,07,07,06,50,0.00
2011,07,07,06,51,0.00
2011,07,07,06,52,0.00
2011,07,07,06,53,0.00
2011,07,07,06,54,0.00
2011,07,07,06,55,0.00
2011,07,07,06,56,0.20
2011,07,07,06,57,0.00
2011,07,07,06,58,0.00
2011,07,07,06,59,0.00
2011,07,07,07,00,0.40
2011,07,07,07,01,0.40
2011,07,07,07,02,0.00
2011,07,07,07,03,0.00
2011,07,07,07,04,0.30
2011,07,07,07,05,0.00
2011,07,07,07,06,0.10
2011,07,07,07,07,0.00
2011,07,07,07,08,0.00
2011,07,07,07,09,0.00
2011,07,07,07,10,0.10
2011,07,07,07,11,0.00
2011,07,07,07,12,0.10
2011,07,07,07,13,0.10
2011,07,07,07,14,0.10
2011,07,07,07,15,0.80
2011,07,07,07,16,1.40
2011,07,07,07,17,2.20
2011,07,07,07,18,0.30
2011,07,07,07,19,0.00
2011,07,07,07,20,0.30
2011,07,07,07,21,0.80
2011,07,07,07,22,0.50
2011,07,07,07,23,0.20
2011,07,07,07,24,0.20
2011,07,07,07,25,0.20
2011,07,07,07,26,1.70
2011,07,07,07,27,0.80
2011,07,07,07,28,0.90
2011,07,07,07,29,4.30
2011,07,07,07,30,1.40
2011,07,07,07,31,0.10
2011,07,07,07,32,0.50
2011,07,07,07,33,0.80
2011,07,07,07,34,4.00
2011,07,07,07,35,0.40
2011,07,07,07,36,0.30
2011,07,07,07,37,2.70
2011,07,07,07,38,0.30
2011,07,07,07,39,0.00
2011,07,07,07,40,0.50
2011,07,07,07,41,1.10
2011,07,07,07,42,2.70
2011,07,07,07,43,2.50
2011,07,07,07,44,3.00
2011,07,07,07,45,1.80
2011,07,07,07,46,6.10
2011,07,07,07,47,7.50
2011,07,07,07,48,5.40
2011,07,07,07,49,4.10
2011,07,07,07,50,3.90
2011,07,07,07,51,1.80
2011,07,07,07,52,0.60
2011,07,07,07,53,0.00
2011,07,07,07,54,2.80
2011,07,07,07,55,2.30
2011,07,07,07,56,4.10
2011,07,07,07,57,2.30
2011,07,07,07,58,5.10
2011,07,07,07,59,4.00
2011,07,07,08,00,2.70
2011,07,07,08,01,4.90
2011,07,07,08,02,2.70
2011,07,07,08,03,4.40
2011,07,07,08,04,3.90
2011,07,07,08,05,2.90
2011,07,07,08,06,3.40
2011,07,07,08,07,2.40
2011,07,07,08,08,4.00
2011,07,07,08,09,1.20
2011,07,07,08,10,0.00
2011,07,07,08,11,1.20
2011,07,07,08,12,3.40
2011,07,07,08,13,4.00
2011,07,07,08,14,4.10
2011,07,07,08,15,4.10
2011,07,07,08,16,0.80
2011,07,07,08,17,4.10
2011,07,07,08,18,7.70
2011,07,07,08,19,4.30
2011,07,07,08,20,0.90
2011,07,07,08,21,2.40
2011,07,07,08,22,1.80
2011,07,07,08,23,0.90
2011,07,07,08,24,0.80
2011,07,07,08,25,0.00
2011,07,07,08,26,0.00
2011,07,07,08,27,1.30
2011,07,07,08,28,2.80
2011,07,07,08,29,1.30
2011,07,07,08,30,2.50
2011,07,07,08,31,1.90
2011,07,07,08,32,2.00
2011,07,07,08,33,3.80
2011,07,07,08,34,4.00
2011,07,07,08,35,3.50
2011,07,07,08,36,1.40
2011,07,07,08,37,2.00
2011,07,07,08,38,3.00
2011,07,07,08,39,2.70
2011,07,07,08,40,5.80
2011,07,07,08,41,2.80
2011,07,07,08,42,1.90
2011,07,07,08,43,0.60
2011,07,07,08,44,0.00
2011,07,07,08,45,0.00
2011,07,07,08,46,0.00
2011,07,07,08,47,0.00
2011,07,07,08,48,0.00
2011,07,07,08,49,0.00
2011,07,07,08,50,0.00
2011,07,07,08,51,0.00
2011,07,07,08,52,0.00
2011,07,07,08,53,0.10
2011,07,07,08,54,0.00
2011,07,07,08,55,0.40
2011,07,07,08,56,0.50
2011,07,07,08,57,1.80
2011,07,07,08,58,2.20
2011,07,07,08,59,0.10
2011,07,07,09,00,2.30
2011,07,07,09,01,1.20
2011,07,07,09,02,7.00
2011,07,07,09,03,0.60
2011,07,07,09,04,0.40
2011,07,07,09,05,0.50
2011,07,07,09,06,0.20
2011,07,07,09,07,0.60
2011,07,07,09,08,0.90
2011,07,07,09,09,1.00
2011,07,07,09,10,0.10
2011,07,07,09,11,0.00
2011,07,07,09,12,2.20
2011,07,07,09,13,3.10
2011,07,07,09,14,2.00
2011,07,07,09,15,0.50
2011,07,07,09,16,0.00
2011,07,07,09,17,0.20
2011,07,07,09,18,0.00
2011,07,07,09,19,0.30
2011,07,07,09,20,0.20
2011,07,07,09,21,0.90
2011,07,07,09,22,1.50
2011,07,07,09,23,1.50
2011,07,07,09,24,2.30
2011,07,07,09,25,0.70
2011,07,07,09,26,1.30
2011,07,07,09,27,0.00
2011,07,07,09,28,0.50
2011,07,07,09,29,0.00
2011,07,07,09,30,0.00
2011,07,07,09,31,0.00
2011,07,07,09,32,0.30
2011,07,07,09,33,1.10
2011,07,07,09,34,1.70
2011,07,07,09,35,1.80
2011,07,07,09,36,0.20
2011,07,07,09,37,0.20
2011,07,07,09,38,1.80
2011,07,07,09,39,1.00
2011,07,07,09,40,2.90
2011,07,07,09,41,2.90
2011,07,07,09,42,0.90
2011,07,07,09,43,5.80
2011,07,07,09,44,6.40
2011,07,07,09,45,2.30
2011,07,07,09,46,0.30
2011,07,07,09,47,1.00
2011,07,07,09,48,3.00
2011,07,07,09,49,4.40
2011,07,07,09,50,2.00
2011,07,07,09,51,3.40
2011,07,07,09,52,3.60
2011,07,07,09,53,4.20
2011,07,07,09,54,2.20
2011,07,07,09,55,2.50
2011,07,07,09,56,0.00
2011,07,07,09,57,1.40
2011,07,07,09,58,1.30
2011,07,07,09,59,3.40
2011,07,07,10,00,1.80
2011,07,07,10,01,0.30
2011,07,07,10,02,3.40
2011,07,07,10,03,1.30
2011,07,07,10,04,1.50
2011,07,07,10,05,1.60
2011,07,07,10,06,3.50
2011,07,07,10,07,9.60
2011,07,07,10,08,7.50
2011,07,07,10,09,5.60
2011,07,07,10,10,7.60
2011,07,07,10,11,4.30
2011,07,07,10,12,1.40
2011,07,07,10,13,8.10
2011,07,07,10,14,6.90
2011,07,07,10,15,6.90
2011,07,07,10,16,6.10
2011,07,07,10,17,1.90
2011,07,07,10,18,7.60
2011,07,07,10,19,8.30
2011,07,07,10,20,1.40
2011,07,07,10,21,0.10
2011,07,07,10,22,1.00
2011,07,07,10,23,4.30
2011,07,07,10,24,11.40
2011,07,07,10,25,2.00
2011,07,07,10,26,4.10
2011,07,07,10,27,6.70
2011,07,07,10,28,8.60
2011,07,07,10,29,1.20
2011,07,07,10,30,1.30
2011,07,07,10,31,3.70
2011,07,07,10,32,4.90
2011,07,07,10,33,6.20
2011,07,07,10,34,8.40
2011,07,07,10,35,3.60
2011,07,07,10,36,2.00
2011,07,07,10,37,0.60
2011,07,07,10,38,1.30
2011,07,07,10,39,4.10
2011,07,07,10,40,9.00
2011,07,07,10,41,5.90
2011,07,07,10,42,4.20
2011,07,07,10,43,1.00
2011,07,07,10,44,3.80
2011,07,07,10,45,4.20
2011,07,07,10,46,11.90
2011,07,07,10,47,5.10
2011,07,07,10,48,6.00
2011,07,07,10,49,3.70
2011,07,07,10,50,6.10
2011,07,07,10,51,3.60
2011,07,07,10,52,7.10
2011,07,07,10,53,10.50
2011,07,07,10,54,2.70
2011,07,07,10,55,1.70
2011,07,07,10,56,2.20
2011,07,07,10,57,6.20
2011,07,07,10,58,5.10
2011,07,07,10,59,5.30
2011,07,07,11,00,4.80
2011,07,07,11,01,6.40
2011,07,07,11,02,6.70
2011,07,07,11,03,4.70
2011,07,07,11,04,7.20
2011,07,07,11,05,6.00
2011,07,07,11,06,6.80
2011,07,07,11,07,7.60
2011,07,07,11,08,5.00
2011,07,07,11,09,6.10
2011,07,07,11,10,7.20
2011,07,07,11,11,8.60
2011,07,07,11,12,3.90
2011,07,07,11,13,2.00
2011,07,07,11,14,5.40
2011,07,07,11,15,8.30
2011,07,07,11,16,5.20
2011,07,07,11,17,2.80
2011,07,07,11,18,1.50
2011,07,07,11,19,3.40
2011,07,07,11,20,0.20
2011,07,07,11,21,0.40
2011,07,07,11,22,3.90
2011,07,07,11,23,4.40
2011,07,07,11,24,3.90
2011,07,07,11,25,5.30
2011,07,07,11,26,4.80
2011,07,07,11,27,1.90
2011,07,07,11,28,6.40
2011,07,07,11,29,11.70
2011,07,07,11,30,4.60
2011,07,07,11,31,6.50
2011,07,07,11,32,11.00
2011,07,07,11,33,15.20
2011,07,07,11,34,3.80
2011,07,07,11,35,5.40
2011,07,07,11,36,1.50
2011,07,07,11,37,5.30
2011,07,07,11,38,3.40
2011,07,07,11,39,5.10
2011,07,07,11,40,4.40
2011,07,07,11,41,5.60
2011,07,07,11,42,7.20
2011,07,07,11,43,3.20
2011,07,07,11,44,2.00
2011,07,07,11,45,2.30
2011,07,07,11,46,4.30
2011,07,07,11,47,4.20
2011,07,07,11,48,3.40
2011,07,07,11,49,4.70
2011,07,07,11,50,3.90
2011,07,07,11,51,3.70
2011,07,07,11,52,4.70
2011,07,07,11,53,4.50
2011,07,07,11,54,4.70
2011,07,07,11,55,3.60
2011,07,07,11,56,4.00
2011,07,07,11,57,0.90
2011,07,07,11,58,9.80
2011,07,07,11,59,10.20
2011,07,07,12,00,3.30
2011,07,07,12,01,7.60
2011,07,07,12,02,3.50
2011,07,07,12,03,4.90
2011,07,07,12,04,1.40
2011,07,07,12,05,3.20
2011,07,07,12,06,6.60
2011,07,07,12,07,9.30
2011,07,07,12,08,5.40
2011,07,07,12,09,3.60
2011,07,07,12,10,11.60
2011,07,07,12,11,6.10
2011,07,07,12,12,2.60
2011,07,07,12,13,2.90
2011,07,07,12,14,4.30
2011,07,07,12,15,1.90
2011,07,07,12,16,6.40
2011,07,07,12,17,5.60
2011,07,07,12,18,2.20
2011,07,07,12,19,2.60
2011,07,07,12,20,3.70
2011,07,07,12,21,5.00
2011,07,07,12,22,13.00
2011,07,07,12,23,9.00
2011,07,07,12,24,10.60
2011,07,07,12,25,3.10
2011,07,07,12,26,0.70
2011,07,07,12,27,5.30
2011,07,07,12,28,12.80
2011,07,07,12,29,8.00
2011,07,07,12,30,3.00
2011,07,07,12,31,4.80
2011,07,07,12,32,2.70
2011,07,07,12,33,1.30
2011,07,07,12,34,2.50
2011,07,07,12,35,9.20
2011,07,07,12,36,6.00
2011,07,07,12,37,6.20
2011,07,07,12,38,2.70
2011,07,07,12,39,5.80
2011,07,07,12,40,6.00
2011,07,07,12,41,12.60
2011,07,07,12,42,5.10
2011,07,07,12,43,8.70
2011,07,07,12,44,7.40
2011,07,07,12,45,10.50
2011,07,07,12,46,4.00
2011,07,07,12,47,8.80
2011,07,07,12,48,15.50
2011,07,07,12,49,15.70
2011,07,07,12,50,12.60
2011,07,07,12,51,17.20
2011,07,07,12,52,13.20
2011,07,07,12,53,10.30
2011,07,07,12,54,9.10
2011,07,07,12,55,9.00
2011,07,07,12,56,5.60
2011,07,07,12,57,6.50
2011,07,07,12,58,13.40
2011,07,07,12,59,7.00
2011,07,07,13,00,5.10
2011,07,07,13,01,3.90
2011,07,07,13,02,2.20
2011,07,07,13,03,4.70
2011,07,07,13,04,5.30
2011,07,07,13,05,10.60
2011,07,07,13,06,10.00
2011,07,07,13,07,10.20
2011,07,07,13,08,9.70
2011,07,07,13,09,3.10
2011,07,07,13,10,7.70
2011,07,07,13,11,11.40
2011,07,07,13,12,2.60
2011,07,07,13,13,8.60
2011,07,07,13,14,9.70
2011,07,07,13,15,4.80
2011,07,07,13,16,5.80
2011,07,07,13,17,5.50
2011,07,07,13,18,6.00
2011,07,07,13,19,5.00
2011,07,07,13,20,4.30
2011,07,07,13,21,8.00
2011,07,07,13,22,10.10
2011,07,07,13,23,14.90
2011,07,07,13,24,7.60
2011,07,07,13,25,9.60
2011,07,07,13,26,11.00
2011,07,07,13,27,15.80
2011,07,07,13,28,13.60
2011,07,07,13,29,7.00
2011,07,07,13,30,8.50
2011,07,07,13,31,3.50
2011,07,07,13,32,9.60
2011,07,07,13,33,5.60
2011,07,07,13,34,8.70
2011,07,07,13,35,10.80
2011,07,07,13,36,10.50
2011,07,07,13,37,5.70
2011,07,07,13,38,7.60
2011,07,07,13,39,8.10
2011,07,07,13,40,5.30
2011,07,07,13,41,2.90
2011,07,07,13,42,2.00
2011,07,07,13,43,5.60
2011,07,07,13,44,4.60
2011,07,07,13,45,5.60
2011,07,07,13,46,2.80
2011,07,07,13,47,5.30
2011,07,07,13,48,6.30
2011,07,07,13,49,8.30
2011,07,07,13,50,3.40
2011,07,07,13,51,8.90
2011,07,07,13,52,6.10
2011,07,07,13,53,7.50
2011,07,07,13,54,3.00
2011,07,07,13,55,3.00
2011,07,07,13,56,6.20
2011,07,07,13,57,7.60
2011,07,07,13,58,5.20
2011,07,07,13,59,8.30
2011,07,07,14,00,12.60
2011,07,07,14,01,7.60
2011,07,07,14,02,6.40
2011,07,07,14,03,10.40
2011,07,07,14,04,7.60
2011,07,07,14,05,5.00
2011,07,07,14,06,14.10
2011,07,07,14,07,9.00
2011,07,07,14,08,6.90
2011,07,07,14,09,5.70
2011,07,07,14,10,7.50
2011,07,07,14,11,14.10
2011,07,07,14,12,5.00
2011,07,07,14,13,8.50
2011,07,07,14,14,4.10
2011,07,07,14,15,3.40
2011,07,07,14,16,5.30
2011,07,07,14,17,6.50
2011,07,07,14,18,11.50
2011,07,07,14,19,9.00
2011,07,07,14,20,3.20
2011,07,07,14,21,1.70
2011,07,07,14,22,6.20
2011,07,07,14,23,5.60
2011,07,07,14,24,6.20
2011,07,07,14,25,3.70
2011,07,07,14,26,1.80
2011,07,07,14,27,3.10
2011,07,07,14,28,3.20
2011,07,07,14,29,5.60
2011,07,07,14,30,4.40
2011,07,07,14,31,2.90
2011,07,07,14,32,5.90
2011,07,07,14,33,4.00
2011,07,07,14,34,6.40
2011,07,07,14,35,2.50
2011,07,07,14,36,5.10
2011,07,07,14,37,6.00
2011,07,07,14,38,8.50
2011,07,07,14,39,10.00
2011,07,07,14,40,10.40
2011,07,07,14,41,9.20
2011,07,07,14,42,6.40
2011,07,07,14,43,4.10
2011,07,07,14,44,11.10
2011,07,07,14,45,14.00
2011,07,07,14,46,10.00
2011,07,07,14,47,11.30
2011,07,07,14,48,8.70
2011,07,07,14,49,16.70
2011,07,07,14,50,5.60
2011,07,07,14,51,4.00
2011,07,07,14,52,6.60
2011,07,07,14,53,6.10
2011,07,07,14,54,7.70
2011,07,07,14,55,9.30
2011,07,07,14,56,13.00
2011,07,07,14,57,6.50
2011,07,07,14,58,11.90
2011,07,07,14,59,13.10
2011,07,07,15,00,10.20
2011,07,07,15,01,14.40
2011,07,07,15,02,7.00
2011,07,07,15,03,10.60
2011,07,07,15,04,9.10
2011,07,07,15,05,11.50
2011,07,07,15,06,7.80
2011,07,07,15,07,13.20
2011,07,07,15,08,14.40
2011,07,07,15,09,6.10
2011,07,07,15,10,4.40
2011,07,07,15,11,7.20
2011,07,07,15,12,10.10
2011,07,07,15,13,8.70
2011,07,07,15,14,9.70
2011,07,07,15,15,4.70
2011,07,07,15,16,6.60
2011,07,07,15,17,7.20
2011,07,07,15,18,14.60
2011,07,07,15,19,4.40
2011,07,07,15,20,8.80
2011,07,07,15,21,13.40
2011,07,07,15,22,13.60
2011,07,07,15,23,7.50
2011,07,07,15,24,9.30
2011,07,07,15,25,11.90
2011,07,07,15,26,15.90
2011,07,07,15,27,18.70
2011,07,07,15,28,11.20
2011,07,07,15,29,8.20
2011,07,07,15,30,7.30
2011,07,07,15,31,13.00
2011,07,07,15,32,7.80
2011,07,07,15,33,10.50
2011,07,07,15,34,15.00
2011,07,07,15,35,11.40
2011,07,07,15,36,19.80
2011,07,07,15,37,16.80
2011,07,07,15,38,8.70
2011,07,07,15,39,6.70
2011,07,07,15,40,12.00
2011,07,07,15,41,7.20
2011,07,07,15,42,10.30
2011,07,07,15,43,9.30
2011,07,07,15,44,8.60
2011,07,07,15,45,7.80
2011,07,07,15,46,18.90
2011,07,07,15,47,18.00
2011,07,07,15,48,13.50
2011,07,07,15,49,19.00
2011,07,07,15,50,9.00
2011,07,07,15,51,3.40
2011,07,07,15,52,13.40
2011,07,07,15,53,5.90
2011,07,07,15,54,8.50
2011,07,07,15,55,10.50
2011,07,07,15,56,7.70
2011,07,07,15,57,14.10
2011,07,07,15,58,11.40
2011,07,07,15,59,9.00
2011,07,07,16,00,9.50
2011,07,07,16,01,8.60
2011,07,07,16,02,12.20
2011,07,07,16,03,15.10
2011,07,07,16,04,8.90
2011,07,07,16,05,12.20
2011,07,07,16,06,6.80
2011,07,07,16,07,15.80
2011,07,07,16,08,5.00
2011,07,07,16,09,17.70
2011,07,07,16,10,8.40
2011,07,07,16,11,7.50
2011,07,07,16,12,11.50
2011,07,07,16,13,14.60
2011,07,07,16,14,8.00
2011,07,07,16,15,10.50
2011,07,07,16,16,10.60
2011,07,07,16,17,11.70
2011,07,07,16,18,18.30
2011,07,07,16,19,6.80
2011,07,07,16,20,3.90
2011,07,07,16,21,7.90
2011,07,07,16,22,11.20
2011,07,07,16,23,21.90
2011,07,07,16,24,11.20
2011,07,07,16,25,9.70
2011,07,07,16,26,15.50
2011,07,07,16,27,13.40
2011,07,07,16,28,14.40
2011,07,07,16,29,13.90
2011,07,07,16,30,10.10
2011,07,07,16,31,11.00
2011,07,07,16,32,11.70
2011,07,07,16,33,5.30
2011,07,07,16,34,5.00
2011,07,07,16,35,10.80
2011,07,07,16,36,7.60
2011,07,07,16,37,10.40
2011,07,07,16,38,7.50
2011,07,07,16,39,5.60
2011,07,07,16,40,2.30
2011,07,07,16,41,11.20
2011,07,07,16,42,8.60
2011,07,07,16,43,3.70
2011,07,07,16,44,2.60
2011,07,07,16,45,2.30
2011,07,07,16,46,3.80
2011,07,07,16,47,3.30
2011,07,07,16,48,1.00
2011,07,07,16,49,3.30
2011,07,07,16,50,3.30
2011,07,07,16,51,7.10
2011,07,07,16,52,9.50
2011,07,07,16,53,8.70
2011,07,07,16,54,6.60
2011,07,07,16,55,3.10
2011,07,07,16,56,2.30
2011,07,07,16,57,4.60
2011,07,07,16,58,5.60
2011,07,07,16,59,6.50
2011,07,07,17,00,4.30
2011,07,07,17,01,5.50
2011,07,07,17,02,6.00
2011,07,07,17,03,4.60
2011,07,07,17,04,3.40
2011,07,07,17,05,1.30
2011,07,07,17,06,4.10
2011,07,07,17,07,3.60
2011,07,07,17,08,4.30
2011,07,07,17,09,4.70
2011,07,07,17,10,6.10
2011,07,07,17,11,4.70
2011,07,07,17,12,1.40
2011,07,07,17,13,4.40
2011,07,07,17,14,5.50
2011,07,07,17,15,8.20
2011,07,07,17,16,8.00
2011,07,07,17,17,9.10
2011,07,07,17,18,4.80
2011,07,07,17,19,3.60
2011,07,07,17,20,7.90
2011,07,07,17,21,3.90
2011,07,07,17,22,4.30
2011,07,07,17,23,7.20
2011,07,07,17,24,5.10
2011,07,07,17,25,3.50
2011,07,07,17,26,3.50
2011,07,07,17,27,2.70
2011,07,07,17,28,3.80
2011,07,07,17,29,4.60
2011,07,07,17,30,9.40
2011,07,07,17,31,5.00
2011,07,07,17,32,5.50
2011,07,07,17,33,1.00
2011,07,07,17,34,7.00
2011,07,07,17,35,4.60
2011,07,07,17,36,5.10
2011,07,07,17,37,4.70
2011,07,07,17,38,5.30
2011,07,07,17,39,5.60
2011,07,07,17,40,5.50
2011,07,07,17,41,4.60
2011,07,07,17,42,1.60
2011,07,07,17,43,6.50
2011,07,07,17,44,3.60
2011,07,07,17,45,4.30
2011,07,07,17,46,3.70
2011,07,07,17,47,5.60
2011,07,07,17,48,5.90
2011,07,07,17,49,8.00
2011,07,07,17,50,5.80
2011,07,07,17,51,7.40
2011,07,07,17,52,6.70
2011,07,07,17,53,4.70
2011,07,07,17,54,5.20
2011,07,07,17,55,0.70
2011,07,07,17,56,0.80
2011,07,07,17,57,4.80
2011,07,07,17,58,5.50
2011,07,07,17,59,4.20
2011,07,07,18,00,3.20
2011,07,07,18,01,6.70
2011,07,07,18,02,6.40